Starlink 3582

operational
NORAD ID: 51873 Int'l Des: 2022-022 Owner: SPXS Country: US Constellation: starlink
LEOCIRCULAR

Starlink 3582について

説明を読み込み中...

リアルタイム位置

3D地球を読み込み中...

次回通過

高度履歴

Altitude vs Time

uPlot chart will show altitude changes over time

軌道要素

1 51873U 22022X 25351.39565100 .00019528 00000-0 11353-2 0 9997
2 51873 53.2154 17.8146 0002433 359.6892 0.4100 15.12101033210709
Epoch: Dec 17, 2025 • Age: 11 hours

現在のステータス

高度 535.3 km
速度 7.60 km/s
衛星直下点 50.78°N, 40.63°E
打ち上げ日 Mar 3, 2022
運用期間 3.7 years
タイプ internet

技術仕様

分類 Payload
質量 297.00 kg
乾燥質量 275.00 kg
総質量 297.00 kg
長さ 0.20 m
直径 2.80 m
スパン 9.00 m
形状 Box + pan
製造者 SPXS
バスタイプ Starlink
フェーズステータス In Orbit
所有者/国 SPXS/US

大規模コンステレーション

Loading constellations...